RH
6 7 7 8 9 10 10 11 28 25 18 28 28 26 27 29 28 26 24 26 30 37 42 39 25 22 74 67 83 83 78 77 75 81 54 36 51 65
5 5 6 6 7 8 10 10 15 25 19 19 30 32 31 30 28 26 26 24 24 24 27 39 44 38 26 16 15 21 27 34 28 24 20 11 15 22
6 5 5 5 5 6 8 10 10 13 23 20 19 25 31 34 35 33 32 30 28 25 24 24 28 41 44 41 35 24 17 16 16 16 17 17 16 16
4 4 4 4 5 6 7 10 10 10 14 21 21 19 22 23 24 24 24 23 24 27 27 24 23 23 30 45 45 43 40 36 30 24 21 21 20 20
7 7 7 8 8 9 8 8 8 9 11 13 18 22 22 20 19 20 21 21 22 23 23 26 25 21 22 23 33 49 48 46 44 40 37 34 33 32
8 7 6 6 6 7 8 9 10 9 8 11 13 14 16 17 18 19 19 20 20 19 19 20 26 25 24 23 23 24 34 51 53 51 48 45 43 41
8 8 8 8 8 9 9 9 8 9 9 9 9 9 10 12 15 15 15 16 16 16 16 16 18 20 24 26 28 27 24 26 46 55 56 56 54 52
43 45 45 38 23 16 10 9 8 8 8 8 7 8 8 9 10 10 10 11 11 11 11 12 13 14 18 22 26 30 26 22 22 34 57 58 57 58
12 11 10 10 9 8 8 9 13 20 30 42 44 29 16 11 10 11 11 11 10 10 11 11 12 12 15 18 19 21 26 22 22 23 23 51 62 59
12 12 12 11 11 12 11 10 9 8 8 7 7 8 23 62 74 65 48 28 19 18 16 16 14 13 14 16 17 17 18 19 20 25 28 38 61 66
17 19 20 17 16 14 11 10 10 9 10 10 8 7 6 6 10 20 53 81 92 87 65 39 26 21 20 20 20 20 20 22 32 34 29 37 80 75
23 22 20 16 14 13 11 10 8 8 7 7 7 7 6 5 6 10 25 64 97 100 98 96 94 74 53 42 38 34 35 29 31 41 84 92 76 94
29 25 19 16 15 12 10 10 10 9 8 7 7 6 4 3 2 7 35 100 100 99 100 100 100 99 98 90 80 74 84 54 56 50 86 82 90 98
28 23 20 18 16 16 14 13 12 10 8 6 5 3 2 2 2 6 50 100 99 100 97 98 100 99 100 100 100 100 97 94 73 95 99 93 97 99
25 26 25 23 22 19 15 12 10 7 4 3 2 2 2 2 3 23 91 81 87 100 100 100 100 100 100 100 100 100 100 100 100 100 97 96 99 99
33 30 29 23 10 9 8 5 3 2 2 2 2 2 2 3 8 19 80 100 100 88 99 100 100 100 100 100 100 100 100 100 100 100 100 100 98 85
37 27 11 6 5 3 2 2 2 2 2 3 3 4 6 21 87 93 98 97 100 100 100 100 100 100 100 100 100 100 100 100 100 100 100 100 87 63
12 5 4 3 2 2 3 3 3 4 6 15 27 26 66 98 88 82 87 98 100 100 100 100 100 100 100 100 100 100 100 100 100 100 100 100 86 54
4 3 3 3 3 3 4 15 37 48 63 66 84 86 100 100 100 100 100 100 100 100 100 100 100 100 100 100 100 100 100 100 100 99 100 99 83 63
4 4 4 4 10 27 54 68 70 76 73 90 100 100 100 100 94 100 100 100 100 100 100 100 100 100 100 100 100 100 100 100 100 100 100 88 77 62
4 5 9 37 58 73 88 77 69 77 83 85 83 88 98 100 100 100 100 100 100 100 100 100 100 100 100 100 99 98 100 100 100 100 100 91 79 65
18 33 66 68 100 96 47 32 23 20 19 25 43 60 67 76 97 100 100 100 100 100 100 100 100 98 100 100 100 100 97 100 100 100 100 92 83 79
44 83 96 100 88 32 34 27 31 28 24 18 11 15 38 61 82 82 100 100 100 100 100 100 100 100 100 100 100 99 98 94 93 86 98 98 85 58
Wind_Speed
22 21 20 20 22 22 22 21 22 23 22 16 17 16 17 18 20 23 25 27 27 25 22 22 17 10 6 8 9 11 9 11 15 20 21 26 30 32
27 26 24 24 24 26 26 25 24 24 26 25 22 21 21 21 21 22 25 27 29 29 28 23 21 18 13 10 9 10 12 17 18 20 23 23 26 33
29 29 29 29 29 28 28 28 27 26 28 30 29 28 27 27 27 27 28 29 28 29 30 28 26 22 21 18 17 16 16 17 19 21 23 25 26 28
27 31 34 33 34 34 33 33 32 30 30 32 33 33 32 32 33 33 33 33 34 33 31 31 29 27 25 24 24 23 23 24 25 26 27 28 29 30
34 35 37 37 38 38 38 39 37 35 34 35 37 38 39 38 38 38 38 38 37 35 34 34 33 34 33 30 27 26 28 29 29 30 32 33 34 35
35 36 38 39 40 40 40 41 41 42 41 40 41 42 42 42 42 43 44 43 42 42 41 40 39 36 35 35 35 34 31 30 32 34 34 34 35 36
41 42 42 42 43 43 44 45 45 46 46 47 48 48 49 49 49 49 49 49 49 48 46 46 45 43 42 40 40 39 40 38 36 34 36 39 39 39
44 46 47 49 50 51 52 52 53 54 54 54 54 55 55 55 56 55 55 54 54 53 52 52 51 50 48 47 45 44 43 43 42 40 38 38 41 42
40 42 44 46 47 49 51 53 54 56 58 59 60 61 61 61 60 59 58 58 58 57 56 55 54 53 52 52 51 49 49 48 46 47 46 43 43 43
44 44 44 46 47 49 50 52 54 56 57 59 61 62 64 64 64 63 62 62 61 60 59 58 58 57 55 53 53 53 50 50 49 48 48 48 47 45
49 50 52 54 55 56 57 57 58 59 61 61 62 63 65 66 67 67 66 64 63 61 61 61 60 59 57 56 53 53 52 50 52 50 50 51 50 47
57 58 59 60 61 63 63 63 64 67 68 67 67 68 67 68 68 68 68 67 64 62 61 60 60 60 58 57 56 54 53 52 52 54 54 53 51 47
61 62 64 65 67 69 70 70 71 72 73 73 73 71 67 65 65 67 65 61 60 60 58 59 61 62 60 59 58 57 56 53 54 55 57 53 51 46
63 66 68 71 73 76 77 77 76 76 72 71 69 66 65 62 61 60 58 55 55 55 56 54 55 56 56 56 57 55 53 53 55 57 53 49 45 43
66 69 72 76 80 82 79 74 70 68 65 64 63 62 61 61 58 55 51 55 55 49 52 53 53 50 51 49 48 51 51 49 51 49 45 45 42 37
69 73 77 80 77 70 65 62 60 58 57 57 58 59 59 57 53 51 52 54 53 52 52 51 45 45 43 42 42 45 44 44 42 41 40 40 36 34
72 76 73 66 60 58 58 58 57 54 54 55 55 54 50 45 41 45 48 48 48 49 49 46 42 39 36 35 37 38 40 36 35 37 38 36 33 32
70 63 57 55 55 55 54 53 52 50 47 44 42 40 39 37 39 37 36 43 47 46 41 39 36 30 29 32 35 36 33 32 33 36 35 32 34 32
56 54 53 52 50 48 46 42 37 36 35 36 35 36 37 38 39 39 39 36 34 38 38 35 32 32 31 31 29 31 31 31 31 34 33 31 33 32
51 50 48 43 39 36 32 29 30 29 29 29 31 33 34 34 35 35 33 33 30 31 33 34 30 34 33 31 32 31 31 30 31 32 32 32 31 30
45 42 37 31 29 28 26 23 23 24 25 25 25 23 24 27 29 29 30 31 33 29 30 31 32 29 28 29 27 30 29 30 31 30 29 29 30 29
38 35 29 25 26 22 21 21 20 21 23 25 27 26 23 22 22 25 28 29 30 32 30 29 25 27 28 25 28 30 31 31 28 26 24 26 26 24
33 30 26 27 23 23 24 22 21 20 21 22 25 29 28 25 22 21 22 24 26 27 28 27 26 25 25 27 28 29 28 27 25 23 18 21 21 20
Wind_Direction
263 269 275 281 287 286 285 290 287 286 295 304 306 319 326 335 341 345 351 357 359 356 355 352 356 355 294 312 257 282 242 239 251 270 274 273 266 265
261 269 274 278 283 285 284 286 287 281 282 292 295 295 303 309 318 327 335 341 344 348 350 349 344 340 328 308 293 279 264 262 263 266 269 271 269 268
266 271 276 281 283 284 282 281 283 282 279 282 285 291 297 303 308 314 318 322 326 330 334 338 339 333 324 315 302 287 273 266 265 263 263 265 267 268
273 272 277 280 283 284 282 280 280 279 278 276 278 280 284 290 294 299 305 310 313 314 317 321 322 323 322 314 307 302 294 287 282 278 276 276 277 276
275 274 275 277 279 280 280 280 279 278 278 278 280 281 281 282 284 287 290 293 296 298 302 305 308 311 312 311 307 300 293 290 286 284 281 279 277 277
279 280 280 280 280 280 280 279 280 279 279 277 277 278 279 279 280 282 284 286 287 291 292 293 294 295 298 300 301 301 297 290 286 282 279 279 279 278
276 276 276 276 276 275 276 276 277 277 277 277 276 276 276 276 276 276 277 279 281 281 283 284 286 287 289 291 293 294 295 295 291 287 283 279 277 278
279 279 279 279 279 279 279 279 278 277 276 276 277 277 277 277 277 278 278 278 278 278 278 279 280 282 282 283 283 285 286 287 288 288 284 282 278 276
281 280 281 282 283 283 283 283 282 282 281 281 280 280 279 278 278 278 278 278 278 278 277 276 276 276 276 277 279 280 283 283 285 287 288 285 280 276
282 284 284 284 284 286 286 287 287 286 284 283 283 282 279 279 279 278 278 277 277 277 277 277 275 275 275 277 278 279 279 280 280 280 282 284 282 277
283 285 285 285 286 287 288 287 286 285 284 285 284 283 282 281 279 277 276 275 275 275 274 274 274 274 275 275 275 276 276 276 276 277 277 277 281 277
282 284 286 289 290 290 290 289 288 286 285 283 281 279 279 278 276 275 274 272 272 273 274 273 273 272 273 273 273 273 274 274 274 273 279 280 282 273
282 284 286 286 287 288 288 287 285 284 284 282 281 280 278 278 277 275 274 274 274 272 271 272 272 269 268 269 269 269 271 270 272 271 281 277 277 270
282 284 285 287 288 289 289 288 287 285 285 285 284 284 280 275 274 274 272 271 272 271 272 271 271 271 271 271 271 270 268 269 269 276 278 276 274 271
282 285 287 289 290 292 291 289 287 286 285 284 283 281 279 279 276 273 273 272 268 275 270 269 268 271 273 274 275 273 275 272 273 274 275 274 271 269
285 288 289 291 292 289 287 286 286 286 285 283 281 279 278 278 276 272 267 268 269 271 275 270 269 271 271 272 277 274 270 271 273 274 273 272 269 271
288 289 290 289 288 287 287 288 288 286 282 280 279 278 278 276 273 272 269 273 275 268 272 269 267 267 270 269 266 267 268 270 272 270 271 275 274 278
291 289 288 288 289 289 288 286 286 285 284 284 283 278 270 274 274 281 279 270 273 267 264 264 262 265 263 262 262 266 268 269 265 267 272 277 279 281
288 287 289 289 288 286 285 287 289 289 287 286 285 277 277 278 274 276 281 279 274 267 262 256 265 258 261 263 267 269 263 264 267 272 277 278 278 282
288 288 287 285 283 282 283 284 285 287 288 286 284 276 271 271 276 272 273 269 271 265 261 255 259 259 270 265 270 261 264 264 270 275 278 279 281 283
288 286 283 277 276 276 278 280 284 284 285 285 285 291 292 281 268 264 265 264 262 266 261 259 256 260 267 266 260 265 266 268 271 274 278 282 283 282
280 277 270 268 264 259 271 283 289 293 287 282 284 281 282 289 291 275 262 257 256 255 260 266 267 262 267 265 263 267 269 268 267 271 275 277 277 277
268 261 259 256 255 264 267 271 284 301 314 307 292 278 274 275 274 283 281 266 255 253 256 258 257 259 263 262 264 264 262 266 271 271 274 269 269 274